Temp
25 28 28 29 28 27 27 27 28 29 27 27 25 26 25 25 25 25 25 24 24 22 22 23 23 23 22 22 22 21 20 20 21 20 20 19 19 18 18 18 19 19 19 19
27 28 28 28 27 27 27 28 29 28 27 27 26 26 25 25 25 25 25 25 24 24 24 24 23 23 23 22 21 21 20 21 21 21 20 20 19 20 19 19 18 18 19 19
27 28 26 28 28 28 28 29 29 28 27 26 27 27 26 26 24 24 24 24 24 24 24 23 23 23 23 23 23 21 21 21 21 21 20 20 19 20 19 18 18 18 19 19
27 27 27 28 28 28 29 28 28 27 28 28 26 29 26 26 26 25 25 24 25 24 25 26 25 24 23 23 23 22 21 21 21 20 20 20 20 20 20 19 20 20 20 20
27 27 28 28 29 28 29 27 27 27 28 27 27 28 30 23 26 27 25 25 25 25 25 26 25 25 24 23 23 22 22 21 20 20 20 20 20 20 19 20 20 19 18 18
28 26 28 29 29 28 28 28 27 26 28 28 26 27 30 28 27 27 26 26 25 25 25 26 25 25 25 24 23 22 22 21 21 20 20 20 19 19 20 19 19 19 19 19
27 28 28 28 29 27 28 29 29 28 28 29 25 26 30 28 27 27 27 26 25 25 25 24 23 25 24 24 23 23 22 22 22 21 20 20 20 20 19 19 19 19 19 18
26 27 28 28 30 30 29 31 30 27 28 29 24 28 30 26 25 24 25 25 24 24 25 23 24 25 25 23 23 23 22 22 21 20 20 20 20 19 19 19 19 19 18 17
26 27 27 28 28 29 27 29 28 27 23 27 28 27 28 26 25 25 25 24 24 24 23 22 23 23 23 23 23 23 22 21 20 20 20 19 19 19 18 18 18 18 18 17
26 27 28 28 28 26 29 26 29 27 27 27 28 26 29 27 26 26 26 25 24 23 21 21 21 22 22 21 21 21 20 20 21 20 19 19 19 18 18 18 18 18 18 17
27 27 28 26 29 29 27 28 25 28 26 29 28 30 27 27 27 27 27 25 24 23 21 20 21 22 21 21 20 20 20 20 20 19 19 19 18 18 18 18 18 18 18 18
28 28 28 29 27 27 28 28 29 30 26 25 26 29 27 26 25 26 26 24 23 22 20 19 21 21 21 21 20 20 19 19 19 19 20 20 19 19 18 18 18 18 18 18
26 27 28 29 29 26 28 26 27 27 27 26 28 30 26 25 24 25 24 22 21 20 19 20 21 22 22 22 21 21 20 20 20 21 21 20 19 19 19 18 18 18 18 18
27 27 29 29 29 28 28 27 26 30 29 27 29 30 29 26 24 23 22 22 21 19 19 20 22 23 23 22 22 22 22 21 21 20 20 20 20 19 19 18 18 18 18 18
29 28 26 25 25 26 28 29 26 28 28 30 29 28 30 25 25 24 22 21 19 18 18 20 22 24 23 22 21 22 23 21 21 20 19 20 20 19 19 18 18 17 17 17
24 26 25 26 25 26 28 28 28 27 26 27 27 28 27 23 23 21 21 20 19 18 19 21 23 24 23 21 21 21 21 20 20 19 19 19 19 19 18 18 18 17 17 17
26 25 26 28 24 27 28 28 28 28 27 28 28 30 26 25 23 22 21 20 20 18 20 23 24 23 22 21 20 21 21 20 19 19 18 18 18 18 18 17 17 17 17 16
23 25 25 25 26 26 28 25 27 28 27 28 27 28 26 24 22 22 21 20 19 19 22 22 23 22 21 20 21 20 20 20 19 19 18 18 18 18 17 17 17 17 16 16
24 24 23 25 26 25 26 25 26 27 29 28 27 27 24 21 21 21 20 20 18 20 20 20 20 21 21 20 20 20 20 19 19 19 18 18 18 17 17 16 16 16 15 15
23 24 27 22 26 26 29 25 25 26 27 28 26 26 23 22 26 21 17 17 16 16 16 17 19 20 20 20 19 20 19 19 18 18 18 17 17 16 16 16 16 15 15 14
24 24 26 24 27 27 25 24 24 26 28 25 24 23 22 23 19 15 15 15 16 16 17 18 18 18 19 20 20 19 18 19 18 18 17 16 16 15 15 15 15 14 14 14
25 26 25 22 24 26 23 23 26 24 23 23 21 20 18 17 16 16 17 17 17 16 16 20 17 18 19 19 19 19 19 19 18 17 16 15 15 15 15 14 14 14 13 13
24 23 25 24 26 21 21 21 21 22 21 21 20 19 19 18 18 20 22 21 21 19 17 17 17 19 19 19 19 19 19 17 16 16 15 15 15 14 14 14 13 13 12 11
19 17 22 22 23 22 22 21 22 23 23 22 22 21 19 20 20 20 19 20 20 17 17 17 18 19 19 18 17 17 16 15 15 15 14 14 14 13 12 12 11 10 9 8
20 18 20 21 22 21 22 22 23 24 24 24 23 22 19 19 19 19 18 18 18 18 17 17 18 18 17 16 15 15 15 15 14 13 13 12 12 11 12 10 9 8 7 6
18 21 23 24 22 22 23 23 23 23 24 22 23 21 19 20 17 18 17 17 17 17 17 17 16 16 16 15 15 16 15 14 13 12 12 11 11 9 6 6 6 6 6 6
Height
1517 1517 1520 1519 1521 1523 1526 1528 1528 1518 1517 1517 1522 1518 1518 1517 1518 1519 1520 1522 1523 1525 1528 1530 1531 1533 1535 1538 1540 1544 1548 1551 1553 1554 1557 1558 1559 1559 1560 1559 1558 1559 1560 1559
1518 1517 1516 1518 1521 1523 1525 1527 1522 1519 1517 1517 1520 1520 1518 1516 1514 1517 1519 1520 1522 1524 1526 1529 1530 1532 1533 1535 1538 1541 1545 1548 1550 1551 1553 1553 1553 1557 1556 1553 1553 1554 1555 1555
1515 1514 1517 1516 1519 1522 1523 1524 1522 1524 1519 1518 1519 1519 1518 1514 1515 1516 1518 1519 1520 1521 1524 1525 1528 1530 1532 1534 1537 1540 1542 1545 1548 1549 1550 1549 1552 1552 1552 1549 1547 1544 1552 1550
1513 1513 1514 1515 1518 1517 1522 1515 1518 1520 1521 1528 1521 1532 1518 1513 1512 1514 1514 1516 1518 1519 1520 1522 1523 1526 1528 1531 1535 1538 1540 1542 1545 1546 1546 1546 1548 1549 1550 1549 1545 1546 1544 1540
1511 1511 1511 1513 1513 1514 1516 1516 1518 1518 1521 1524 1528 1531 1507 1516 1512 1508 1512 1514 1515 1517 1519 1520 1521 1522 1524 1527 1532 1536 1538 1539 1541 1543 1544 1545 1546 1548 1548 1547 1545 1542 1538 1534
1506 1508 1508 1506 1508 1511 1512 1514 1518 1522 1521 1533 1532 1531 1512 1510 1504 1504 1510 1512 1515 1517 1518 1519 1519 1521 1523 1526 1530 1534 1537 1540 1541 1542 1543 1544 1544 1545 1545 1544 1542 1539 1536 1532
1507 1504 1504 1505 1509 1511 1510 1513 1527 1534 1534 1535 1532 1532 1509 1500 1502 1503 1505 1511 1514 1516 1518 1520 1522 1521 1523 1524 1527 1531 1535 1539 1541 1540 1541 1543 1544 1545 1544 1543 1540 1537 1535 1531
1513 1520 1501 1500 1500 1502 1508 1504 1519 1545 1537 1526 1533 1527 1503 1502 1502 1504 1506 1509 1512 1514 1518 1521 1520 1519 1521 1523 1525 1528 1533 1537 1540 1541 1542 1543 1544 1545 1543 1541 1539 1536 1533 1529
1510 1510 1496 1496 1497 1501 1510 1511 1507 1524 1538 1531 1522 1513 1498 1499 1503 1504 1506 1510 1510 1514 1519 1520 1520 1521 1522 1524 1526 1528 1532 1536 1539 1540 1541 1541 1543 1542 1541 1540 1537 1535 1531 1528
1499 1508 1495 1495 1497 1501 1498 1506 1514 1517 1539 1541 1520 1524 1507 1499 1499 1501 1504 1505 1510 1515 1521 1523 1521 1522 1525 1530 1531 1531 1534 1536 1537 1540 1542 1542 1542 1541 1539 1538 1536 1534 1531 1528
1495 1497 1500 1498 1496 1496 1506 1505 1513 1509 1520 1523 1529 1510 1494 1494 1492 1494 1499 1503 1509 1515 1518 1520 1520 1522 1525 1529 1532 1533 1534 1536 1539 1539 1540 1541 1540 1540 1539 1537 1536 1534 1530 1527
1490 1493 1501 1494 1493 1495 1493 1497 1498 1504 1525 1525 1521 1508 1491 1491 1492 1494 1497 1506 1509 1512 1516 1519 1521 1522 1523 1526 1529 1532 1533 1536 1536 1539 1540 1541 1540 1539 1538 1537 1534 1531 1528 1524
1489 1496 1503 1497 1495 1496 1493 1497 1497 1499 1501 1518 1516 1503 1491 1493 1492 1495 1498 1503 1507 1510 1513 1517 1518 1519 1520 1522 1524 1528 1532 1533 1537 1538 1538 1539 1539 1539 1536 1535 1532 1530 1527 1524
1479 1490 1489 1497 1492 1488 1494 1493 1495 1489 1499 1507 1501 1492 1489 1494 1494 1494 1497 1499 1503 1506 1510 1513 1515 1517 1518 1521 1521 1518 1523 1531 1535 1538 1537 1537 1537 1536 1535 1533 1530 1528 1526 1523
1476 1486 1493 1494 1494 1493 1489 1487 1494 1494 1494 1495 1493 1495 1485 1492 1491 1491 1492 1496 1500 1504 1508 1511 1513 1514 1516 1517 1520 1520 1516 1527 1532 1535 1535 1534 1533 1533 1531 1529 1528 1526 1524 1522
1478 1490 1490 1494 1492 1490 1491 1488 1490 1492 1495 1495 1494 1492 1486 1491 1489 1493 1493 1493 1495 1501 1505 1509 1511 1511 1511 1512 1517 1519 1519 1526 1530 1533 1534 1534 1533 1530 1528 1526 1524 1523 1522 1519
1474 1483 1488 1494 1496 1491 1498 1485 1487 1487 1487 1486 1492 1481 1484 1486 1487 1487 1489 1489 1491 1495 1500 1505 1509 1509 1511 1514 1517 1519 1521 1525 1529 1531 1531 1530 1530 1528 1524 1523 1522 1520 1519 1516
1473 1479 1488 1496 1495 1513 1483 1484 1482 1483 1483 1482 1482 1481 1483 1484 1483 1483 1485 1491 1495 1495 1500 1505 1508 1509 1512 1515 1516 1519 1522 1525 1528 1528 1528 1527 1524 1523 1521 1519 1519 1517 1515 1513
1467 1474 1494 1497 1496 1495 1485 1483 1482 1482 1479 1476 1477 1479 1482 1483 1484 1484 1488 1493 1499 1504 1503 1505 1509 1510 1512 1514 1518 1521 1523 1525 1526 1526 1525 1523 1520 1519 1518 1517 1515 1514 1512 1510
1470 1470 1473 1498 1494 1500 1470 1475 1477 1478 1485 1471 1476 1478 1481 1482 1481 1490 1493 1497 1504 1506 1512 1510 1509 1509 1512 1516 1518 1519 1521 1523 1524 1523 1521 1518 1516 1516 1515 1513 1511 1510 1507 1505
1475 1477 1479 1487 1484 1478 1472 1476 1478 1490 1480 1475 1478 1479 1481 1483 1488 1491 1495 1498 1505 1511 1513 1510 1511 1514 1514 1516 1518 1519 1520 1521 1521 1520 1517 1515 1514 1513 1511 1509 1506 1504 1501 1498
1475 1476 1481 1492 1492 1492 1475 1479 1479 1477 1475 1475 1477 1478 1479 1484 1489 1491 1493 1497 1498 1502 1518 1507 1511 1517 1517 1517 1519 1520 1520 1519 1518 1516 1515 1513 1512 1509 1506 1504 1501 1498 1494 1491
1480 1476 1476 1480 1474 1474 1476 1476 1475 1475 1475 1477 1478 1479 1479 1481 1483 1485 1487 1489 1491 1497 1510 1518 1512 1515 1517 1517 1519 1519 1517 1516 1516 1515 1513 1511 1508 1504 1502 1498 1494 1491 1488 1486
1477 1480 1478 1479 1472 1471 1472 1474 1475 1474 1474 1475 1477 1479 1483 1481 1484 1486 1487 1488 1491 1501 1511 1512 1514 1515 1516 1517 1518 1516 1515 1514 1513 1510 1508 1504 1502 1501 1496 1492 1490 1487 1485 1482
1474 1478 1477 1475 1470 1470 1469 1470 1472 1473 1473 1474 1477 1480 1485 1485 1487 1488 1489 1492 1496 1501 1506 1509 1513 1514 1515 1517 1516 1514 1511 1510 1508 1507 1503 1500 1497 1494 1488 1488 1487 1483 1481 1478
1470 1468 1468 1467 1467 1468 1468 1468 1468 1470 1472 1473 1473 1480 1483 1486 1487 1488 1491 1495 1500 1505 1508 1510 1513 1515 1516 1514 1513 1510 1508 1508 1506 1502 1500 1497 1493 1489 1488 1485 1483 1481 1477 1474
Wind_Speed
3 6 9 7 4 2 1 3 7 6 2 2 3 1 3 7 12 15 17 18 19 19 16 15 18 18 15 15 15 15 17 16 17 18 13 13 17 20 22 27 25 20 20 21
5 11 6 6 5 4 2 6 7 3 4 1 1 2 2 6 13 16 16 18 19 17 18 14 15 16 13 11 10 13 13 13 8 9 12 10 14 14 23 24 20 19 22 19
6 4 9 6 5 3 3 5 3 5 1 4 2 3 3 4 4 9 12 17 18 19 18 16 16 19 16 13 8 6 12 16 15 4 5 12 10 10 12 9 7 8 19 21
4 6 7 5 4 3 6 4 5 4 6 2 2 4 5 5 6 5 11 14 16 17 20 19 14 13 19 19 15 5 5 8 9 7 4 8 11 5 8 8 8 21 23 26
5 6 9 5 4 7 1 2 2 3 4 1 3 4 3 1 10 10 11 12 12 12 14 12 12 9 10 13 17 12 4 2 2 4 4 5 8 10 9 10 10 15 18 20
4 2 3 5 4 7 3 3 3 3 2 3 2 4 6 5 8 7 9 11 9 5 5 6 5 4 6 11 15 13 11 1 1 3 4 4 6 7 6 7 12 15 17 21
3 7 2 4 3 4 4 5 3 3 3 3 1 3 9 6 6 6 16 13 9 8 7 6 5 4 5 10 13 11 10 13 6 5 6 4 5 3 7 10 12 14 16 18
9 9 11 7 11 4 7 4 3 4 5 5 3 5 1 2 3 7 10 8 12 12 8 6 9 9 8 10 11 12 10 8 7 5 4 4 4 4 8 10 11 12 15 18
9 8 2 5 3 4 6 4 3 5 1 3 1 4 11 8 6 7 11 11 17 14 8 8 12 12 12 14 13 12 13 11 7 6 7 7 3 4 8 10 12 13 14 17
5 7 2 4 5 5 1 7 3 1 3 6 3 4 6 2 11 9 12 18 17 13 7 8 12 15 13 11 13 15 11 9 10 8 4 5 2 7 7 8 10 13 14 16
7 2 4 1 5 6 4 5 3 4 1 3 3 4 2 3 4 14 16 19 19 15 13 12 15 16 16 14 12 11 12 10 8 6 3 1 3 5 7 8 10 13 15 18
8 3 3 2 5 1 3 3 6 5 5 0 3 4 2 5 6 14 13 13 19 18 17 16 17 16 16 14 12 10 8 6 6 4 5 6 6 7 8 10 12 15 18 20
9 4 4 6 5 4 3 5 4 4 3 6 3 2 3 2 7 12 13 21 21 21 21 22 18 12 16 14 12 10 7 4 6 9 11 11 11 11 10 11 13 15 17 19
22 5 5 7 3 1 5 7 8 6 4 6 6 7 3 6 8 14 15 23 25 24 26 27 20 10 18 15 17 20 14 6 11 12 12 9 8 8 7 12 11 14 19 19
13 13 4 1 3 4 4 8 11 7 2 5 2 6 3 1 10 20 20 24 25 25 25 26 18 11 12 15 16 15 17 14 13 12 9 6 6 9 11 9 12 11 15 18
5 5 4 1 2 6 4 6 6 5 2 7 3 7 1 3 8 17 22 26 28 26 26 25 15 9 8 14 19 15 16 16 15 12 9 6 3 9 11 11 14 13 18 21
10 8 6 6 2 5 5 11 9 4 4 4 6 3 5 2 10 20 24 28 29 30 32 23 10 8 20 17 14 14 18 17 13 11 10 8 9 15 13 14 12 14 19 18
10 9 2 3 4 5 2 1 3 8 5 9 9 8 4 6 4 12 20 21 22 29 32 21 13 18 19 16 13 14 16 14 12 11 9 9 13 16 13 9 13 17 18 21
3 6 4 5 8 2 2 6 7 9 9 12 10 5 4 3 2 4 9 12 14 19 21 15 11 16 17 12 10 10 10 11 11 12 12 13 15 10 10 14 18 19 21 23
8 7 3 4 5 9 3 5 5 6 9 11 7 3 5 8 5 4 7 9 8 5 4 6 6 7 12 11 6 8 10 8 9 9 11 12 10 13 16 18 20 22 23 25
2 3 3 4 3 3 3 8 8 6 4 5 0 3 6 5 1 11 18 22 17 10 4 4 4 5 8 4 5 7 6 5 6 10 11 12 15 17 19 22 24 26 26 27
3 4 3 3 2 6 6 7 6 3 1 2 5 11 18 18 16 21 28 24 23 15 10 6 9 13 14 13 9 6 3 4 8 11 12 15 18 21 24 27 29 30 30 31
2 1 0 5 1 1 6 1 1 2 2 7 7 17 26 23 20 21 20 19 15 12 19 15 15 14 12 9 4 3 4 7 10 14 18 21 24 27 28 28 28 27 25 22
3 3 2 3 3 6 8 8 7 3 1 5 1 15 18 24 23 17 17 16 15 21 22 19 15 12 9 6 3 4 8 12 16 19 21 22 22 22 21 21 20 20 18 17
2 8 4 4 8 11 13 12 9 7 4 2 3 14 14 23 19 16 14 19 23 22 19 15 11 7 3 2 7 12 16 19 19 18 19 19 19 20 20 19 18 18 15 15
9 6 4 1 1 2 0 1 9 10 4 5 9 17 16 14 18 21 25 28 25 22 18 15 11 5 3 8 13 17 18 19 18 18 18 19 19 18 16 16 16 15 18 17
Wind_Direction
138 198 214 197 161 131 173 282 302 326 342 21 6 291 331 198 202 204 212 215 227 232 238 260 250 252 255 245 249 249 248 252 263 262 263 262 260 272 285 280 273 277 281 267
171 210 181 160 174 184 200 287 306 279 350 272 86 15 315 227 217 217 216 226 233 240 244 249 246 245 254 245 254 251 235 234 283 272 261 279 270 301 315 294 279 279 281 279
197 155 167 195 161 214 221 264 297 305 75 74 147 271 245 228 242 215 224 235 240 245 252 260 258 247 240 240 254 250 237 248 263 224 242 245 280 351 20 20 39 331 299 286
214 157 198 187 231 203 276 205 275 245 196 246 302 277 255 223 254 224 225 231 237 242 252 268 271 250 251 245 234 226 213 226 222 219 285 231 230 318 306 309 334 307 304 295
167 190 194 206 226 180 272 200 15 102 139 206 161 256 271 272 243 229 206 227 241 242 248 259 260 268 255 232 223 211 168 53 228 274 250 224 267 301 314 315 327 328 326 323
197 176 224 204 183 196 152 212 89 93 119 254 103 255 270 226 238 213 200 219 218 223 211 231 213 224 223 213 210 214 219 199 356 203 169 210 286 294 311 330 338 350 356 356
210 220 187 187 240 166 175 193 190 214 199 271 130 215 264 276 252 233 184 194 195 182 187 164 161 178 183 186 191 201 218 227 291 157 176 208 238 232 315 325 337 344 349 3
199 212 220 174 218 241 190 237 229 241 256 296 177 237 252 319 193 144 153 173 178 183 194 134 131 131 148 158 163 173 179 182 166 149 169 202 183 299 319 327 331 334 344 346
187 229 204 201 132 219 152 195 77 117 101 256 275 265 266 226 190 179 166 168 182 182 177 149 126 124 127 133 136 143 150 158 160 165 165 170 208 315 325 328 340 343 337 336
173 206 181 126 132 67 281 132 171 165 221 250 237 271 259 202 206 205 180 189 180 169 142 109 116 120 120 117 126 132 144 156 153 148 151 178 243 330 348 358 3 5 1 358
167 240 135 163 205 160 143 191 65 109 281 248 274 284 249 287 243 191 197 194 169 150 152 146 143 135 132 129 131 135 138 141 139 132 93 41 3 29 31 21 12 7 5 5
189 177 218 208 112 50 211 181 204 226 189 216 325 297 212 264 220 187 185 169 160 156 153 153 149 148 142 137 134 141 145 145 139 131 82 73 61 53 43 32 28 23 15 10
170 218 178 155 126 170 213 178 174 119 143 184 215 291 160 74 153 172 152 157 161 158 154 156 143 145 161 160 147 142 139 142 149 129 104 82 66 51 44 28 22 20 16 13
169 171 217 187 158 116 193 177 179 230 192 156 230 297 119 148 167 157 158 170 169 164 166 168 158 100 162 176 172 157 136 157 162 159 134 95 58 27 13 11 358 5 359 356
184 211 198 202 280 233 262 189 177 213 195 238 77 220 359 325 202 181 165 166 169 169 169 173 161 178 194 196 174 153 140 178 175 177 157 116 54 7 343 336 333 334 350 342
193 153 156 135 342 222 237 183 188 223 200 260 260 279 147 138 167 180 181 174 176 170 172 168 179 237 259 170 175 162 156 179 190 192 195 216 315 333 316 314 322 320 336 336
169 154 171 221 70 161 215 207 198 192 204 222 224 245 340 195 186 195 194 192 180 171 172 169 150 162 158 158 163 167 178 188 196 214 234 257 294 320 311 305 316 325 331 327
149 146 113 130 150 192 51 286 206 221 232 222 262 270 292 284 231 206 202 197 186 176 170 166 150 152 149 163 173 179 188 196 213 233 257 285 302 312 301 305 312 314 316 315
170 132 114 165 199 333 231 202 191 190 234 214 226 223 226 181 193 222 211 203 194 164 164 158 146 163 171 173 177 183 193 216 240 264 283 289 298 284 285 294 300 305 303 305
81 88 148 166 183 215 214 154 155 134 254 205 210 268 194 169 226 72 91 108 122 147 98 78 101 161 172 179 181 197 197 224 247 262 275 287 276 276 286 291 296 299 300 302
78 58 132 152 217 271 206 154 150 200 300 99 70 31 141 176 325 118 100 92 87 52 11 52 46 137 133 141 161 166 175 215 250 265 275 278 281 287 296 299 302 301 302 302
164 163 156 120 175 256 149 147 211 17 332 33 73 113 125 121 124 126 112 99 72 55 295 103 155 144 132 124 117 123 177 260 272 281 285 291 297 301 301 300 301 302 304 303
200 246 240 227 242 88 195 291 248 11 304 58 115 141 138 143 144 132 126 122 124 142 218 195 160 143 128 122 149 241 284 294 304 305 303 301 301 300 301 303 305 308 309 308
206 174 231 253 181 249 238 243 246 259 309 27 18 167 169 154 151 146 143 130 138 159 170 163 156 153 155 169 219 294 315 315 310 307 306 307 309 309 313 316 314 316 318 317
81 160 183 252 269 272 266 246 230 224 194 276 198 178 171 157 157 159 151 147 152 158 164 160 166 167 161 324 333 334 332 329 329 329 330 328 328 328 331 327 323 325 325 327
191 173 191 171 220 252 240 88 204 200 201 195 168 182 185 172 161 154 151 158 165 169 171 171 174 178 305 333 333 333 334 333 338 343 346 345 346 346 341 337 334 329 328 337